TimeEST,TemperatureF,Dew PointF,Humidity,Sea Level PressureIn,VisibilityMPH,Wind Direction,Wind SpeedMPH,Gust SpeedMPH,PrecipitationIn,Events,Conditions,WindDirDegrees,DateUTC
12:53 AM,16.0,1.0,52,30.22,10.0,South,8.1,-,N/A,,Clear,190,2014-01-30 05:53:00
1:53 AM,15.1,1.0,54,30.20,10.0,South,6.9,-,N/A,,Clear,180,2014-01-30 06:53:00
2:53 AM,15.1,1.0,54,30.20,10.0,South,6.9,-,N/A,,Clear,180,2014-01-30 07:53:00
3:53 AM,15.1,1.0,54,30.18,10.0,South,8.1,-,N/A,,Clear,170,2014-01-30 08:53:00
4:53 AM,15.1,1.0,54,30.18,10.0,South,6.9,-,N/A,,Clear,180,2014-01-30 09:53:00
5:53 AM,16.0,1.0,52,30.19,10.0,South,6.9,-,N/A,,Clear,190,2014-01-30 10:53:00
6:53 AM,16.0,1.0,52,30.17,10.0,South,8.1,-,N/A,,Clear,170,2014-01-30 11:53:00
7:53 AM,16.0,1.0,52,30.16,10.0,South,9.2,-,N/A,,Clear,190,2014-01-30 12:53:00
8:53 AM,18.0,1.9,50,30.15,10.0,South,8.1,-,N/A,,Clear,180,2014-01-30 13:53:00
9:53 AM,19.9,1.9,46,30.13,10.0,South,17.3,25.3,N/A,,Clear,190,2014-01-30 14:53:00
10:53 AM,23.0,3.9,44,30.10,10.0,South,15.0,21.9,N/A,,Clear,190,2014-01-30 15:53:00
11:53 AM,24.1,5.0,44,30.05,10.0,South,15.0,21.9,N/A,,Clear,180,2014-01-30 16:53:00
12:53 PM,26.1,6.1,43,29.99,10.0,South,18.4,25.3,N/A,,Clear,190,2014-01-30 17:53:00
1:53 PM,28.0,7.0,41,29.95,10.0,South,13.8,23.0,N/A,,Clear,180,2014-01-30 18:53:00
2:53 PM,30.9,7.0,37,29.88,10.0,South,20.7,29.9,N/A,,Clear,170,2014-01-30 19:53:00
3:53 PM,32.0,7.0,35,29.86,10.0,South,15.0,24.2,N/A,,Clear,180,2014-01-30 20:53:00
4:53 PM,32.0,7.0,35,29.86,10.0,South,12.7,23.0,N/A,,Clear,190,2014-01-30 21:53:00
5:53 PM,33.1,7.0,34,29.88,10.0,SSW,11.5,-,N/A,,Clear,200,2014-01-30 22:53:00
6:53 PM,32.0,7.0,35,29.91,10.0,SSW,11.5,-,N/A,,Clear,210,2014-01-30 23:53:00
7:53 PM,33.1,7.0,34,29.95,10.0,SW,9.2,-,N/A,,Overcast,230,2014-01-31 00:53:00
8:53 PM,33.1,10.9,40,29.94,10.0,SSW,10.4,19.6,N/A,,Scattered Clouds,210,2014-01-31 01:53:00
9:53 PM,33.1,8.1,35,29.95,10.0,SW,10.4,18.4,N/A,,Scattered Clouds,220,2014-01-31 02:53:00
10:53 PM,33.1,8.1,35,29.96,10.0,SW,9.2,19.6,N/A,,Overcast,220,2014-01-31 03:53:00
11:53 PM,33.1,9.0,37,29.97,10.0,SW,8.1,-,N/A,,Overcast,220,2014-01-31 04:53:00